Schneifelwetter: Wetterstation Hallschlag, 537 m . NN
Wetterdaten: Freitag, 05.03.2010
Datum Zeit Temp. A. Feuchte A. Luftdruck Regen Wind Richtung Richtung Sonnenschein Helligkeit T Regen Taupunkt Windchill
05.03.2010 00:09 -4,4 C 80 % 1020 hPa 0,0 l/m 17,2 km/h (3 Bft) N22.5 360 0 min 0 lux 0,00 min -7,3 C -13,7 C
05.03.2010 00:24 -4,6 C 80 % 1020 hPa 0,0 l/m 15,6 km/h (3 Bft) N22.5 355 0 min 0 lux 0,00 min -7,5 C -13,0 C
05.03.2010 00:39 -4,8 C 78 % 1020 hPa 0,0 l/m 13,6 km/h (3 Bft) N-NW22.5 335 0 min 0 lux 0,00 min -8,0 C -11,8 C
05.03.2010 00:54 -5,1 C 76 % 1020 hPa 0,0 l/m 15,2 km/h (3 Bft) N 355 0 min 0 lux 0,00 min -8,7 C -13,3 C
05.03.2010 01:09 -5,5 C 76 % 1020 hPa 0,0 l/m 13,1 km/h (3 Bft) N 360 0 min 0 lux 0,00 min -9,0 C -12,2 C
05.03.2010 01:24 -5,9 C 76 % 1020 hPa 0,0 l/m 8,6 km/h (2 Bft) N 360 0 min 0 lux 0,00 min -9,4 C -8,5 C
05.03.2010 01:39 -6,5 C 77 % 1020 hPa 0,0 l/m 4,2 km/h (1 Bft) N 355 0 min 0 lux 0,00 min -9,8 C -6,5 C
05.03.2010 01:54 -6,9 C 77 % 1020 hPa 0,0 l/m 0,7 km/h (0 Bft) N 355 0 min 0 lux 0,00 min -10,2 C -6,9 C
05.03.2010 02:09 -7,3 C 78 % 1020 hPa 0,0 l/m 3,1 km/h (1 Bft) N 355 0 min 0 lux 0,00 min -10,5 C -7,3 C
05.03.2010 02:24 -7,4 C 80 % 1020 hPa 0,0 l/m 2,4 km/h (1 Bft) N 355 0 min 0 lux 0,00 min -10,2 C -7,4 C
05.03.2010 02:39 -7,2 C 81 % 1020 hPa 0,0 l/m 2,1 km/h (1 Bft) N 355 0 min 0 lux 0,00 min -9,9 C -7,2 C
05.03.2010 02:54 -6,3 C 86 % 1020 hPa 0,0 l/m 21,0 km/h (4 Bft) N22.5 350 0 min 0 lux 0,00 min -8,2 C -18,3 C
05.03.2010 03:09 -5,1 C 87 % 1020 hPa 0,0 l/m 17,6 km/h (3 Bft) N22.5 355 0 min 0 lux 0,00 min -6,9 C -14,8 C
05.03.2010 03:24 -4,8 C 86 % 1020 hPa 0,0 l/m 12,5 km/h (3 Bft) N45 350 0 min 0 lux 0,00 min -6,8 C -10,9 C
05.03.2010 03:39 -4,8 C 86 % 1020 hPa 0,0 l/m 16,5 km/h (3 Bft) N-NW67.5 345 0 min 0 lux 0,00 min -6,8 C -13,8 C
05.03.2010 03:54 -4,8 C 87 % 1020 hPa 0,0 l/m 19,9 km/h (4 Bft) N45 350 0 min 0 lux 0,00 min -6,6 C -15,8 C
05.03.2010 04:09 -4,8 C 87 % 1020 hPa 0,0 l/m 17,6 km/h (3 Bft) N22.5 355 0 min 0 lux 0,00 min -6,6 C -14,5 C
05.03.2010 04:24 -4,8 C 86 % 1021 hPa 0,0 l/m 26,4 km/h (4 Bft) N22.5 355 0 min 0 lux 0,00 min -6,8 C -18,8 C
05.03.2010 04:39 -5,0 C 85 % 1021 hPa 0,0 l/m 25,6 km/h (4 Bft) N45 350 0 min 0 lux 0,00 min -7,1 C -18,7 C
05.03.2010 04:54 -5,0 C 85 % 1021 hPa 0,0 l/m 24,6 km/h (4 Bft) N22.5 10 0 min 0 lux 0,00 min -7,1 C -18,3 C
05.03.2010 05:09 -5,3 C 86 % 1021 hPa 0,0 l/m 26,3 km/h (4 Bft) N45 5 0 min 0 lux 0,00 min -7,3 C -19,4 C
05.03.2010 05:24 -5,5 C 86 % 1021 hPa 0,0 l/m 15,7 km/h (3 Bft) N45 360 0 min 0 lux 0,00 min -7,5 C -14,1 C
05.03.2010 05:39 -5,9 C 86 % 1021 hPa 0,0 l/m 15,2 km/h (3 Bft) N-NW22.5 345 0 min 0 lux 0,00 min -7,9 C -14,3 C
05.03.2010 05:54 -6,0 C 87 % 1021 hPa 0,0 l/m 18,3 km/h (3 Bft) N22.5 350 0 min 0 lux 0,00 min -7,8 C -16,4 C
05.03.2010 06:09 -6,3 C 87 % 1021 hPa 0,0 l/m 11,8 km/h (2 Bft) N-NW22.5 345 0 min 0 lux 0,00 min -8,1 C -12,1 C
05.03.2010 06:24 -6,7 C 87 % 1021 hPa 0,0 l/m 9,0 km/h (2 Bft) NW 320 0 min 0 lux 0,00 min -8,5 C -9,8 C
05.03.2010 06:39 -7,0 C 87 % 1021 hPa 0,0 l/m 12,6 km/h (3 Bft) NW22.5 325 0 min 0 lux 0,00 min -8,8 C -13,6 C
05.03.2010 06:54 -7,6 C 87 % 1021 hPa 0,0 l/m 0,4 km/h (0 Bft) N-NW 330 0 min 166 lux 0,00 min -9,4 C -7,6 C
05.03.2010 07:09 -8,3 C 87 % 1021 hPa 0,0 l/m 3,9 km/h (1 Bft) N-NW 330 0 min 819 lux 0,00 min -10,1 C -8,3 C
05.03.2010 07:24 -8,7 C 87 % 1022 hPa 0,0 l/m 2,8 km/h (1 Bft) N-NW 330 0 min 2,46 klux 0,00 min -10,5 C -8,7 C
05.03.2010 07:39 -8,9 C 88 % 1022 hPa 0,0 l/m 3,7 km/h (1 Bft) N-NW 330 0 min 9,0 klux 0,00 min -10,5 C -8,9 C
05.03.2010 08:01 -8,9 C 88 % 1022 hPa 0,0 l/m 4,3 km/h (1 Bft) N-NW 330 0 min 13,7 klux 0,00 min -10,5 C -8,9 C
05.03.2010 07:55 -8,9 C 88 % 1022 hPa 0,0 l/m 4,3 km/h (1 Bft) N-NW 330 0 min 13,7 klux 0,00 min -10,5 C -8,9 C
05.03.2010 08:15 -8,6 C 89 % 1022 hPa 0,0 l/m 0,0 km/h (0 Bft) N-NW 330 0 min 20,1 klux 0,00 min -10,1 C -8,6 C
05.03.2010 08:30 -7,9 C 90 % 1022 hPa 0,0 l/m 0,0 km/h (0 Bft) N-NW 330 0 min 24,1 klux 0,00 min -9,2 C -7,9 C
05.03.2010 08:45 -7,2 C 90 % 1022 hPa 0,0 l/m 0,0 km/h (0 Bft) N-NW 330 15 min 28,6 klux 0,00 min -8,6 C -7,2 C
05.03.2010 09:01 -6,3 C 89 % 1022 hPa 0,0 l/m 1,0 km/h (0 Bft) N-NW 330 16 min 32,8 klux 0,00 min -7,8 C -6,3 C
05.03.2010 09:16 -4,9 C 85 % 1022 hPa 0,0 l/m 8,9 km/h (2 Bft) NO 50 15 min 36,5 klux 0,00 min -7,0 C -7,8 C
05.03.2010 09:31 -3,9 C 80 % 1022 hPa 0,0 l/m 8,9 km/h (2 Bft) N-NO45 15 15 min 39,2 klux 0,00 min -6,8 C -6,7 C
05.03.2010 09:46 -3,1 C 69 % 1022 hPa 0,0 l/m 10,8 km/h (2 Bft) NW 325 15 min 42,1 klux 0,00 min -8,0 C -7,6 C
05.03.2010 10:00 -2,4 C 58 % 1022 hPa 0,0 l/m 18,9 km/h (3 Bft) N-NO22.5 15 14 min 50,4 klux 0,00 min -9,5 C -12,2 C
05.03.2010 10:15 -2,0 C 55 % 1022 hPa 0,0 l/m 18,1 km/h (3 Bft) N45 360 15 min 55,9 klux 0,00 min -9,8 C -11,2 C
05.03.2010 10:30 -1,5 C 54 % 1023 hPa 0,0 l/m 18,4 km/h (3 Bft) N45 10 15 min 60,0 klux 0,00 min -9,6 C -10,8 C
05.03.2010 10:45 -1,2 C 50 % 1022 hPa 0,0 l/m 22,6 km/h (4 Bft) N22.5 10 15 min 70,0 klux 0,00 min -10,3 C -12,4 C
05.03.2010 11:01 -0,7 C 53 % 1022 hPa 0,0 l/m 17,2 km/h (3 Bft) N45 350 16 min 61,9 klux 0,00 min -9,1 C -9,1 C
05.03.2010 11:16 -0,4 C 50 % 1022 hPa 0,0 l/m 18,7 km/h (3 Bft) N-NW45 340 15 min 62,6 klux 0,00 min -9,5 C -9,5 C
05.03.2010 11:31 -0,2 C 51 % 1022 hPa 0,0 l/m 20,0 km/h (4 Bft) N45 350 15 min 51,4 klux 0,00 min -9,1 C -9,9 C
05.03.2010 11:46 0,2 C 48 % 1022 hPa 0,0 l/m 23,0 km/h (4 Bft) NW45 310 15 min 72,1 klux 0,00 min -9,5 C -10,7 C
05.03.2010 12:00 0,3 C 48 % 1022 hPa 0,0 l/m 21,3 km/h (4 Bft) NW45 315 14 min 82,8 klux 0,00 min -9,4 C -9,8 C
05.03.2010 12:15 0,3 C 49 % 1022 hPa 0,0 l/m 26,6 km/h (4 Bft) N45 350 15 min 81,3 klux 0,00 min -9,1 C -11,9 C
05.03.2010 12:30 0,7 C 49 % 1022 hPa 0,0 l/m 26,0 km/h (4 Bft) N-NW22.5 345 15 min 76,8 klux 0,00 min -8,8 C -11,1 C
05.03.2010 12:46 1,1 C 48 % 1022 hPa 0,0 l/m 32,7 km/h (5 Bft) NW67.5 325 16 min 73,9 klux 0,00 min -8,7 C -12,6 C
05.03.2010 13:01 0,9 C 47 % 1022 hPa 0,0 l/m 22,9 km/h (4 Bft) N-NW45 335 15 min 73,7 klux 0,00 min -9,1 C -9,7 C
05.03.2010 13:16 0,7 C 48 % 1022 hPa 0,0 l/m 31,3 km/h (5 Bft) N-NW45 330 15 min 75,0 klux 0,00 min -9,0 C -12,8 C
05.03.2010 13:31 0,9 C 50 % 1022 hPa 0,0 l/m 15,6 km/h (3 Bft) W22.5 270 15 min 66,1 klux 0,00 min -8,3 C -6,2 C
05.03.2010 13:45 1,1 C 51 % 1022 hPa 0,0 l/m 22,1 km/h (4 Bft) NW67.5 315 14 min 64,0 klux 0,00 min -7,9 C -9,1 C
05.03.2010 14:00 1,5 C 51 % 1022 hPa 0,0 l/m 22,1 km/h (4 Bft) NW67.5 315 15 min 64,9 klux 0,00 min -7,5 C -8,6 C
05.03.2010 14:16 1,6 C 50 % 1022 hPa 0,0 l/m 21,1 km/h (4 Bft) W45 270 16 min 42,9 klux 0,00 min -7,7 C -8,0 C
05.03.2010 14:31 1,1 C 53 % 1021 hPa 0,0 l/m 22,5 km/h (4 Bft) W45 280 15 min 27,3 klux 0,00 min -7,4 C -9,3 C
05.03.2010 14:46 0,8 C 56 % 1021 hPa 0,0 l/m 24,0 km/h (4 Bft) W22.5 270 15 min 46,3 klux 0,00 min -7,0 C -10,3 C
05.03.2010 15:01 1,1 C 55 % 1021 hPa 0,0 l/m 29,7 km/h (5 Bft) W22.5 270 15 min 31,8 klux 0,00 min -6,9 C -11,8 C
05.03.2010 15:15 1,1 C 57 % 1021 hPa 0,0 l/m 23,3 km/h (4 Bft) W22.5 260 14 min 38,9 klux 0,00 min -6,4 C -9,6 C
05.03.2010 15:30 1,1 C 59 % 1021 hPa 0,0 l/m 30,3 km/h (5 Bft) W22.5 265 15 min 44,1 klux 0,00 min -6,0 C -11,9 C
05.03.2010 15:45 1,2 C 61 % 1021 hPa 0,0 l/m 16,8 km/h (3 Bft) W-SW22.5 245 15 min 43,5 klux 0,00 min -5,5 C -6,5 C
05.03.2010 16:01 1,2 C 61 % 1021 hPa 0,0 l/m 22,5 km/h (4 Bft) W-SW22.5 255 16 min 35,6 klux 0,00 min -5,5 C -9,1 C
05.03.2010 16:16 0,7 C 65 % 1021 hPa 0,0 l/m 27,8 km/h (4 Bft) W45 265 0 min 19,3 klux 0,00 min -5,1 C -11,7 C
05.03.2010 16:31 0,0 C 68 % 1021 hPa 0,0 l/m 22,7 km/h (4 Bft) W22.5 260 0 min 9,1 klux 0,00 min -5,2 C -10,8 C
05.03.2010 16:46 -0,4 C 70 % 1021 hPa 0,0 l/m 20,4 km/h (4 Bft) W45 275 0 min 14,2 klux 0,00 min -5,2 C -10,3 C
05.03.2010 17:00 -0,6 C 72 % 1020 hPa 0,0 l/m 14,0 km/h (3 Bft) W22.5 265 0 min 6,18 klux 0,00 min -5,0 C -7,1 C
05.03.2010 17:15 -0,8 C 76 % 1020 hPa 0,0 l/m 24,5 km/h (4 Bft) W22.5 270 0 min 4,71 klux 0,00 min -4,5 C -12,6 C
05.03.2010 17:30 -1,0 C 77 % 1020 hPa 0,0 l/m 23,8 km/h (4 Bft) W22.5 265 0 min 4,29 klux 0,00 min -4,5 C -12,6 C
05.03.2010 17:46 -1,3 C 77 % 1020 hPa 0,0 l/m 25,3 km/h (4 Bft) W22.5 260 0 min 4,96 klux 0,00 min -4,8 C -13,6 C
05.03.2010 18:01 -1,6 C 78 % 1020 hPa 0,0 l/m 22,8 km/h (4 Bft) W-SW22.5 255 0 min 3,36 klux 0,00 min -4,9 C -13,0 C
05.03.2010 18:16 -1,8 C 78 % 1019 hPa 0,0 l/m 21,4 km/h (4 Bft) W-SW22.5 255 0 min 1,19 klux 0,00 min -5,1 C -12,6 C
05.03.2010 18:30 -1,9 C 79 % 1019 hPa 0,0 l/m 19,2 km/h (3 Bft) W-SW22.5 250 0 min 349 lux 0,00 min -5,0 C -11,7 C
05.03.2010 18:45 -1,9 C 80 % 1019 hPa 0,0 l/m 26,6 km/h (4 Bft) W22.5 260 0 min 68 lux 0,00 min -4,9 C -14,9 C
05.03.2010 19:00 -2,0 C 81 % 1019 hPa 0,0 l/m 27,3 km/h (4 Bft) W22.5 260 0 min 16 lux 0,00 min -4,8 C -15,3 C
05.03.2010 19:15 -2,0 C 81 % 1019 hPa 0,0 l/m 25,6 km/h (4 Bft) W-SW22.5 255 0 min 4 lux 0,00 min -4,8 C -14,7 C
05.03.2010 19:31 -2,1 C 83 % 1019 hPa 0,0 l/m 28,0 km/h (4 Bft) W-SW22.5 255 0 min 0 lux 0,00 min -4,6 C -15,7 C
05.03.2010 19:46 -2,1 C 84 % 1018 hPa 0,0 l/m 36,3 km/h (5 Bft) W-SW22.5 250 0 min 0 lux 0,00 min -4,4 C -18,2 C
05.03.2010 20:01 -2,1 C 84 % 1018 hPa 0,0 l/m 31,5 km/h (5 Bft) W-SW22.5 250 0 min 0 lux 0,00 min -4,4 C -16,8 C
05.03.2010 20:15 -2,1 C 85 % 1018 hPa 0,3 l/m 34,5 km/h (5 Bft) W-SW22.5 255 0 min 0 lux 14,00 min -4,3 C -17,7 C
05.03.2010 20:30 -2,2 C 86 % 1018 hPa 0,3 l/m 28,8 km/h (4 Bft) W-SW22.5 250 0 min 0 lux 15,00 min -4,2 C -16,1 C
05.03.2010 20:45 -2,2 C 87 % 1018 hPa 0,0 l/m 38,2 km/h (5 Bft) W-SW22.5 255 0 min 0 lux 0,00 min -4,1 C -18,8 C
05.03.2010 21:01 -2,3 C 87 % 1017 hPa 0,3 l/m 33,9 km/h (5 Bft) W-SW22.5 255 0 min 0 lux 16,00 min -4,2 C -17,8 C
05.03.2010 21:16 -2,4 C 88 % 1017 hPa 0,0 l/m 34,8 km/h (5 Bft) W22.5 260 0 min 0 lux 0,00 min -4,1 C -18,2 C
05.03.2010 21:31 -2,4 C 89 % 1017 hPa 0,3 l/m 37,2 km/h (5 Bft) W-SW45 255 0 min 0 lux 15,00 min -4,0 C -18,8 C
05.03.2010 21:46 -2,4 C 90 % 1017 hPa 0,0 l/m 32,8 km/h (5 Bft) W-SW22.5 250 0 min 0 lux 0,00 min -3,8 C -17,6 C
05.03.2010 22:01 -2,4 C 90 % 1016 hPa 0,0 l/m 32,1 km/h (5 Bft) W-SW45 250 0 min 0 lux 0,00 min -3,8 C -17,4 C
05.03.2010 22:15 -2,4 C 90 % 1016 hPa 0,3 l/m 35,0 km/h (5 Bft) W-SW45 255 0 min 0 lux 14,00 min -3,8 C -18,3 C
05.03.2010 22:30 -2,3 C 91 % 1016 hPa 0,0 l/m 33,6 km/h (5 Bft) W-SW22.5 255 0 min 0 lux 0,00 min -3,6 C -17,7 C
05.03.2010 22:45 -2,3 C 91 % 1015 hPa 0,3 l/m 32,5 km/h (5 Bft) W22.5 260 0 min 0 lux 15,00 min -3,6 C -17,4 C
05.03.2010 23:01 -2,3 C 91 % 1015 hPa 0,0 l/m 31,6 km/h (5 Bft) W-SW45 250 0 min 0 lux 0,00 min -3,6 C -17,1 C
05.03.2010 23:16 -2,2 C 92 % 1015 hPa 0,0 l/m 32,9 km/h (5 Bft) W22.5 260 0 min 0 lux 0,00 min -3,3 C -17,4 C
05.03.2010 23:31 -2,2 C 92 % 1015 hPa 0,0 l/m 25,5 km/h (4 Bft) W-SW22.5 255 0 min 0 lux 0,00 min -3,3 C -14,9 C
05.03.2010 23:46 -2,1 C 92 % 1014 hPa 0,0 l/m 25,0 km/h (4 Bft) W45 260 0 min 0 lux 0,00 min -3,2 C -14,6 C
05.03.2010 23:55 -1,9 C 93 % 1014 hPa 0,0 l/m 30,0 km/h (5 Bft) W22.5 260 0 min 0 lux 0,00 min -2,9 C -16,1 C
_ Min-Zeit 07:39 13:01 23:46 - 08:15 - - - - - 07:39 05:09
Minimum _ -8,9 C 47 % 1014 hPa - 0,0 km/h (0 Bft) - - - - - -10,5 C -19,4 C
_ Max-Zeit 14:16 23:55 10:30 20:15 20:45 - - 09:01 12:00 21:01 23:55 13:31
Maximum _ 1,6 C 93 % 1023 hPa 0,3 l/m 38,2 km/h
W-SW (5 Bft)
- - 16 min 82,8 klux 16,00 min -2,9 C -6,2 C
Durchschnitt _ -3,0 C 76 % 1020 hPa #1,8 l/m 19,8 km/h (3 Bft) N - #7:31 h 18,4 klux #1:29 h -7,0 C -12,3 C